This is the latest recevied weather packets stored in our database for station/object N1KM-15. If no packets are shown the sender has not sent any weather packets the latest 10 day(s).
| Time | Temp. | Humidity | Pressure | Rain* | Wind** | Luminosity | Snow |
|---|---|---|---|---|---|---|---|
| 1777732200 | 12.22° C | 75% | 1010.2 hPa | 0 mm | - | - | - |
| 1777731300 | 12.22° C | 74% | 1009.5 hPa | 0 mm | - | - | - |
| 1777730400 | 11.11° C | 81% | 1009.4 hPa | 0 mm | - | - | - |
| 1777729500 | 11.11° C | 80% | 1010.3 hPa | 0 mm | - | - | - |
| 1777728600 | 11.11° C | 80% | 1010.3 hPa | 0 mm | - | - | - |
| 1777727700 | 11.11° C | 78% | 1010.7 hPa | 0 mm | - | - | - |
| 1777726800 | 11.11° C | 79% | 1010 hPa | 0 mm | - | - | - |
| 1777725900 | 10.56° C | 82% | 1010.6 hPa | 0 mm | - | - | - |
| 1777725000 | 10.56° C | 81% | 1010.9 hPa | 0 mm | - | - | - |
| 1777724100 | 10.56° C | 81% | 1010.5 hPa | 0 mm | - | - | - |
| 1777723200 | 10.56° C | 82% | 1010.4 hPa | 0 mm | - | - | - |
| 1777722300 | 10° C | 84% | 1010.4 hPa | 0 mm | - | - | - |
| 1777721400 | 9.44° C | 82% | 1010.3 hPa | 0 mm | - | - | - |
| 1777720500 | 9.44° C | 81% | 1010.1 hPa | 0 mm | - | - | - |
| 1777719600 | 9.44° C | 82% | 1010.3 hPa | 0 mm | - | - | - |
| 1777718700 | 8.89° C | 83% | 1010.4 hPa | 0 mm | - | - | - |
| 1777717800 | 8.89° C | 83% | 1010 hPa | 0 mm | - | - | - |
| 1777716900 | 8.89° C | 82% | 1010 hPa | 0 mm | - | - | - |
| 1777716000 | 8.89° C | 82% | 1010 hPa | 0 mm | - | - | - |
| 1777715100 | 8.33° C | 80% | 1010.1 hPa | 0 mm | - | - | - |
| 1777714200 | 8.33° C | 78% | 1009.9 hPa | 0 mm | - | - | - |
| 1777713300 | 8.33° C | 78% | 1009.9 hPa | 0 mm | - | - | - |
| 1777712400 | 8.33° C | 77% | 1010.1 hPa | 0 mm | - | - | - |
| 1777711500 | 8.33° C | 76% | 1009.8 hPa | 0 mm | - | - | - |
| 1777710600 | 8.89° C | 75% | 1009.9 hPa | 0 mm | - | - | - |
* Rain since midnight (hover to see other rain measurements)
** Current wind speed in m/s (hover to see current wind gust speed)